Time,TemperatureF,DewpointF,PressureIn,WindDirection,WindDirectionDegrees,WindSpeedMPH,WindSpeedGustMPH,Humidity,HourlyPrecipIn,Conditions,Clouds,dailyrainin,SolarRadiationWatts/m^2,SoftwareType,DateUTC
2013-05-20 00:01:00,62.7,61.0,29.50,ENE,67,0.0,0.0,94,0.00,,---,1.03,0.00,VWS V14.01,2013-05-20 05:01:00,
2013-05-20 00:06:00,62.7,61.0,29.50,ENE,67,0.0,0.0,94,0.00,,---,0.00,0.00,VWS V14.01,2013-05-20 05:06:00,
2013-05-20 00:11:00,62.7,61.0,29.50,ENE,67,0.0,0.0,94,0.00,,---,0.00,0.00,VWS V14.01,2013-05-20 05:11:00,
2013-05-20 00:16:00,62.7,61.0,29.50,ENE,67,0.0,0.0,94,0.00,,---,0.00,0.00,VWS V14.01,2013-05-20 05:16:00,
2013-05-20 00:21:00,62.6,60.8,29.50,ENE,67,0.0,0.0,94,0.00,,---,0.00,0.00,VWS V14.01,2013-05-20 05:21:00,
2013-05-20 00:26:00,62.7,61.0,29.50,ENE,67,0.0,0.0,94,0.00,,---,0.00,0.00,VWS V14.01,2013-05-20 05:26:00,
2013-05-20 00:31:00,62.7,61.0,29.50,ENE,67,0.0,0.0,94,0.00,,---,0.00,0.00,VWS V14.01,2013-05-20 05:31:00,
2013-05-20 00:36:00,62.8,61.0,29.50,ENE,67,0.0,0.0,94,0.00,,---,0.00,0.00,VWS V14.01,2013-05-20 05:36:00,
2013-05-20 00:41:00,62.8,61.0,29.50,ENE,67,3.0,4.0,94,0.00,,---,0.00,0.00,VWS V14.01,2013-05-20 05:41:00,
2013-05-20 00:46:00,62.9,61.2,29.50,ENE,67,3.0,4.0,94,0.00,,---,0.00,0.00,VWS V14.01,2013-05-20 05:46:00,
2013-05-20 00:51:00,62.9,61.2,29.49,ENE,67,3.0,3.0,94,0.00,,---,0.00,0.00,VWS V14.01,2013-05-20 05:51:00,
2013-05-20 00:56:00,62.8,61.0,29.49,ENE,67,0.0,4.0,94,0.00,,---,0.00,0.00,VWS V14.01,2013-05-20 05:56:00,
2013-05-20 01:01:00,62.8,61.0,29.49,ENE,67,0.0,4.0,94,0.00,,---,0.00,0.00,VWS V14.01,2013-05-20 06:01:00,
2013-05-20 01:06:00,62.8,61.0,29.48,ENE,67,4.0,5.0,94,0.00,,---,0.00,0.00,VWS V14.01,2013-05-20 06:06:00,
2013-05-20 01:11:00,62.7,61.0,29.47,ENE,67,2.0,5.0,94,0.00,,---,0.00,0.00,VWS V14.01,2013-05-20 06:11:00,
2013-05-20 01:16:00,62.6,60.8,29.47,ENE,67,4.0,5.0,94,0.00,,---,0.00,0.00,VWS V14.01,2013-05-20 06:16:00,
2013-05-20 01:21:00,62.7,61.0,29.47,ENE,67,2.0,4.0,94,0.00,,---,0.00,0.00,VWS V14.01,2013-05-20 06:21:00,
2013-05-20 01:26:00,62.7,61.0,29.47,East,79,4.0,7.0,94,0.00,,---,0.00,0.00,VWS V14.01,2013-05-20 06:26:00,
2013-05-20 01:31:00,62.7,61.0,29.47,East,99,4.0,8.0,94,0.00,,---,0.00,0.00,VWS V14.01,2013-05-20 06:31:00,
2013-05-20 01:36:00,62.8,61.0,29.48,SE,131,10.0,11.0,94,0.00,,---,0.00,0.00,VWS V14.01,2013-05-20 06:36:00,
2013-05-20 01:41:00,63.0,61.0,29.48,SE,130,10.0,14.0,93,0.00,,---,0.00,0.00,VWS V14.01,2013-05-20 06:41:00,
2013-05-20 01:46:00,63.1,61.0,29.48,SE,145,17.0,17.0,93,0.00,,---,0.00,0.00,VWS V14.01,2013-05-20 06:46:00,
2013-05-20 01:51:00,63.2,60.8,29.48,SSE,161,11.0,15.0,92,0.00,,---,0.00,0.00,VWS V14.01,2013-05-20 06:51:00,
2013-05-20 01:56:00,63.4,60.7,29.47,SE,146,13.0,15.0,91,0.00,,---,0.00,0.00,VWS V14.01,2013-05-20 06:56:00,
2013-05-20 02:01:00,63.5,60.8,29.46,South,171,9.0,15.0,91,0.00,,---,0.00,0.00,VWS V14.01,2013-05-20 07:01:00,
2013-05-20 02:06:00,63.5,60.5,29.46,SSE,155,8.0,16.0,90,0.00,,---,0.00,0.00,VWS V14.01,2013-05-20 07:06:00,
2013-05-20 02:11:00,63.5,60.5,29.46,SSE,147,12.0,20.0,90,0.00,,---,0.00,0.00,VWS V14.01,2013-05-20 07:11:00,
2013-05-20 02:16:00,63.5,60.5,29.45,SE,134,13.0,20.0,90,0.00,,---,0.00,0.00,VWS V14.01,2013-05-20 07:16:00,
2013-05-20 02:21:00,63.4,60.4,29.45,SE,146,11.0,16.0,90,0.00,,---,0.00,0.00,VWS V14.01,2013-05-20 07:21:00,
2013-05-20 02:26:00,63.3,60.9,29.45,SSE,147,12.0,16.0,92,0.00,,---,0.00,0.00,VWS V14.01,2013-05-20 07:26:00,
2013-05-20 02:31:00,63.3,60.3,29.45,SSE,160,13.0,20.0,90,0.00,,---,0.00,0.00,VWS V14.01,2013-05-20 07:31:00,
2013-05-20 02:36:00,63.2,60.2,29.45,SSE,156,14.0,17.0,90,0.00,,---,0.00,0.00,VWS V14.01,2013-05-20 07:36:00,
2013-05-20 02:41:00,63.1,60.1,29.44,SE,142,17.0,22.0,90,0.00,,---,0.00,0.00,VWS V14.01,2013-05-20 07:41:00,
2013-05-20 02:46:00,63.0,60.0,29.44,SE,145,13.0,22.0,90,0.00,,---,0.00,0.00,VWS V14.01,2013-05-20 07:46:00,
2013-05-20 02:51:00,62.9,60.2,29.44,SSE,150,12.0,15.0,91,0.00,,---,0.00,0.00,VWS V14.01,2013-05-20 07:51:00,
2013-05-20 02:56:00,62.7,60.0,29.44,SE,146,13.0,18.0,91,0.00,,---,0.00,0.00,VWS V14.01,2013-05-20 07:56:00,
2013-05-20 03:01:00,62.7,60.0,29.44,SE,146,12.0,18.0,91,0.00,,---,0.00,0.00,VWS V14.01,2013-05-20 08:01:00,
2013-05-20 03:06:00,62.7,60.0,29.44,SSE,148,17.0,17.0,91,0.00,,---,0.00,0.00,VWS V14.01,2013-05-20 08:06:00,
2013-05-20 03:11:00,62.5,59.8,29.44,SE,145,13.0,17.0,91,0.00,,---,0.00,0.00,VWS V14.01,2013-05-20 08:11:00,
2013-05-20 03:16:00,62.5,59.8,29.44,SE,140,12.0,21.0,91,0.00,,---,0.00,0.00,VWS V14.01,2013-05-20 08:16:00,
2013-05-20 03:21:00,62.4,59.7,29.44,SE,146,12.0,16.0,91,0.00,,---,0.00,0.00,VWS V14.01,2013-05-20 08:21:00,
2013-05-20 03:26:00,62.3,60.0,29.44,SSE,155,9.0,16.0,92,0.00,,---,0.00,0.00,VWS V14.01,2013-05-20 08:26:00,
2013-05-20 03:31:00,62.3,60.0,29.44,SE,144,11.0,20.0,92,0.00,,---,0.00,0.00,VWS V14.01,2013-05-20 08:31:00,
2013-05-20 03:36:00,62.2,59.8,29.43,SSE,157,11.0,17.0,92,0.00,,---,0.00,0.00,VWS V14.01,2013-05-20 08:36:00,
2013-05-20 03:41:00,62.2,59.8,29.43,SE,140,12.0,17.0,92,0.00,,---,0.00,0.00,VWS V14.01,2013-05-20 08:41:00,
2013-05-20 03:46:00,62.1,59.8,29.43,SSE,155,13.0,17.0,92,0.00,,---,0.00,0.00,VWS V14.01,2013-05-20 08:46:00,
2013-05-20 03:51:00,62.1,59.8,29.43,SE,138,9.0,16.0,92,0.00,,---,0.00,0.00,VWS V14.01,2013-05-20 08:51:00,
2013-05-20 03:55:00,62.0,59.7,29.43,SE,140,10.0,16.0,92,0.00,,---,0.00,0.00,VWS V14.01,2013-05-20 08:55:00,
2013-05-20 04:00:00,62.0,59.7,29.43,SE,138,12.0,16.0,92,0.00,,---,0.00,0.00,VWS V14.01,2013-05-20 09:00:00,
2013-05-20 04:05:00,61.9,59.5,29.43,SSE,148,9.0,11.0,92,0.00,,---,0.00,0.00,VWS V14.01,2013-05-20 09:05:00,
2013-05-20 04:10:00,61.9,59.5,29.43,SE,145,11.0,13.0,92,0.01,,---,0.01,0.00,VWS V14.01,2013-05-20 09:10:00,
2013-05-20 04:15:00,61.9,59.5,29.44,SE,144,11.0,14.0,92,0.01,,---,0.01,0.00,VWS V14.01,2013-05-20 09:15:00,
2013-05-20 04:20:00,61.9,59.9,29.44,SSE,150,11.0,14.0,93,0.01,,---,0.01,0.00,VWS V14.01,2013-05-20 09:20:00,
2013-05-20 04:25:00,61.9,59.9,29.44,SSE,153,6.0,14.0,93,0.01,,---,0.01,0.00,VWS V14.01,2013-05-20 09:25:00,
2013-05-20 04:30:00,61.9,59.9,29.44,SE,145,9.0,14.0,93,0.02,,---,0.02,0.00,VWS V14.01,2013-05-20 09:30:00,
2013-05-20 04:35:00,61.8,59.8,29.44,SSE,153,8.0,16.0,93,0.02,,---,0.02,0.00,VWS V14.01,2013-05-20 09:35:00,
2013-05-20 04:40:00,61.7,59.7,29.44,SSE,150,9.0,16.0,93,0.02,,---,0.02,0.00,VWS V14.01,2013-05-20 09:40:00,
2013-05-20 04:45:00,61.7,59.7,29.44,South,175,12.0,16.0,93,0.02,,---,0.02,0.00,VWS V14.01,2013-05-20 09:45:00,
2013-05-20 04:50:00,61.7,59.7,29.43,SSE,163,13.0,14.0,93,0.02,,---,0.02,0.00,VWS V14.01,2013-05-20 09:50:00,
2013-05-20 04:55:00,61.7,59.7,29.43,SSE,154,12.0,14.0,93,0.02,,---,0.02,0.00,VWS V14.01,2013-05-20 09:55:00,
2013-05-20 05:00:00,61.7,59.7,29.43,SSE,159,6.0,14.0,93,0.02,,---,0.02,0.00,VWS V14.01,2013-05-20 10:00:00,
2013-05-20 05:05:00,61.6,59.6,29.43,SSE,161,10.0,12.0,93,0.02,,---,0.02,0.00,VWS V14.01,2013-05-20 10:05:00,
2013-05-20 05:10:00,61.5,59.5,29.43,SE,145,12.0,13.0,93,0.03,,---,0.03,0.00,VWS V14.01,2013-05-20 10:10:00,
2013-05-20 05:15:00,61.4,59.4,29.44,SSE,156,10.0,13.0,93,0.03,,---,0.03,0.00,VWS V14.01,2013-05-20 10:15:00,
2013-05-20 05:20:00,61.3,59.3,29.43,SSE,160,6.0,10.0,93,0.02,,---,0.03,0.00,VWS V14.01,2013-05-20 10:20:00,
2013-05-20 05:25:00,61.2,59.2,29.43,SE,145,7.0,10.0,93,0.02,,---,0.03,0.00,VWS V14.01,2013-05-20 10:25:00,
2013-05-20 05:30:00,61.1,59.1,29.43,SSE,151,7.0,13.0,93,0.02,,---,0.03,0.00,VWS V14.01,2013-05-20 10:30:00,
2013-05-20 05:35:00,61.1,59.1,29.43,SSE,153,5.0,6.0,93,0.01,,---,0.03,0.00,VWS V14.01,2013-05-20 10:35:00,
2013-05-20 05:40:00,61.0,59.0,29.43,SSE,148,5.0,9.0,93,0.01,,---,0.03,0.00,VWS V14.01,2013-05-20 10:40:00,
2013-05-20 05:45:00,61.0,59.0,29.43,SE,145,7.0,9.0,93,0.01,,---,0.03,0.00,VWS V14.01,2013-05-20 10:45:00,
2013-05-20 05:50:00,61.0,59.0,29.44,SE,140,7.0,10.0,93,0.01,,---,0.03,0.00,VWS V14.01,2013-05-20 10:50:00,
2013-05-20 05:55:00,61.0,59.0,29.44,SE,145,6.0,11.0,93,0.01,,---,0.03,0.00,VWS V14.01,2013-05-20 10:55:00,
2013-05-20 06:00:00,61.0,59.0,29.45,SE,137,10.0,12.0,93,0.01,,---,0.03,0.00,VWS V14.01,2013-05-20 11:00:00,
2013-05-20 06:05:00,61.0,59.0,29.45,SSE,152,8.0,9.0,93,0.01,,---,0.03,0.00,VWS V14.01,2013-05-20 11:05:00,
2013-05-20 06:10:00,61.1,59.1,29.45,SSE,165,7.0,11.0,93,0.01,,---,0.03,0.00,VWS V14.01,2013-05-20 11:10:00,
2013-05-20 06:15:00,61.1,59.1,29.45,SSE,161,10.0,13.0,93,0.01,,---,0.03,0.00,VWS V14.01,2013-05-20 11:15:00,
2013-05-20 06:20:00,61.0,59.0,29.45,SSE,165,10.0,15.0,93,0.00,,---,0.03,11.00,VWS V14.01,2013-05-20 11:20:00,
2013-05-20 06:25:00,61.0,58.7,29.45,SSE,164,11.0,16.0,92,0.00,,---,0.03,19.00,VWS V14.01,2013-05-20 11:25:00,
2013-05-20 06:30:00,60.9,58.6,29.45,South,173,9.0,17.0,92,0.00,,---,0.03,44.00,VWS V14.01,2013-05-20 11:30:00,
2013-05-20 06:35:00,60.9,58.6,29.45,South,186,15.0,16.0,92,0.00,,---,0.03,42.00,VWS V14.01,2013-05-20 11:35:00,
2013-05-20 06:40:00,60.8,58.5,29.46,SSE,161,9.0,16.0,92,0.00,,---,0.03,62.00,VWS V14.01,2013-05-20 11:40:00,
2013-05-20 06:45:00,60.6,58.3,29.46,SSE,167,11.0,16.0,92,0.00,,---,0.03,46.00,VWS V14.01,2013-05-20 11:45:00,
2013-05-20 06:50:00,60.4,58.1,29.45,South,178,12.0,13.0,92,0.00,,---,0.03,56.00,VWS V14.01,2013-05-20 11:50:00,
2013-05-20 06:55:00,60.3,58.0,29.45,South,191,16.0,16.0,92,0.00,,---,0.03,62.00,VWS V14.01,2013-05-20 11:55:00,
2013-05-20 07:00:00,60.4,58.1,29.45,South,179,9.0,16.0,92,0.00,,---,0.03,53.00,VWS V14.01,2013-05-20 12:00:00,
2013-05-20 07:05:00,60.3,58.0,29.45,South,171,10.0,13.0,92,0.00,,---,0.03,42.00,VWS V14.01,2013-05-20 12:05:00,
2013-05-20 07:10:00,60.3,58.0,29.46,South,178,9.0,14.0,92,0.00,,---,0.03,37.00,VWS V14.01,2013-05-20 12:10:00,
2013-05-20 07:15:00,60.2,57.9,29.45,South,180,6.0,15.0,92,0.00,,---,0.03,54.00,VWS V14.01,2013-05-20 12:15:00,
2013-05-20 07:20:00,60.3,58.0,29.45,South,175,12.0,15.0,92,0.00,,---,0.03,79.00,VWS V14.01,2013-05-20 12:20:00,
2013-05-20 07:25:00,60.4,58.1,29.45,South,175,12.0,16.0,92,0.00,,---,0.03,93.00,VWS V14.01,2013-05-20 12:25:00,
2013-05-20 07:30:00,60.5,57.9,29.45,South,184,6.0,16.0,91,0.00,,---,0.03,98.00,VWS V14.01,2013-05-20 12:30:00,
2013-05-20 07:35:00,60.6,58.0,29.46,South,172,7.0,13.0,91,0.00,,---,0.03,104.00,VWS V14.01,2013-05-20 12:35:00,
2013-05-20 07:40:00,60.9,58.6,29.46,South,177,13.0,14.0,92,0.00,,---,0.03,258.00,VWS V14.01,2013-05-20 12:40:00,
2013-05-20 07:45:00,61.2,58.6,29.46,South,178,15.0,15.0,91,0.00,,---,0.03,262.00,VWS V14.01,2013-05-20 12:45:00,
2013-05-20 07:50:00,61.4,58.8,29.46,South,180,10.0,12.0,91,0.00,,---,0.03,279.00,VWS V14.01,2013-05-20 12:50:00,
2013-05-20 07:55:00,61.6,58.3,29.46,South,182,12.0,14.0,89,0.00,,---,0.03,295.00,VWS V14.01,2013-05-20 12:55:00,
2013-05-20 08:00:00,61.9,58.3,29.47,South,178,11.0,16.0,88,0.00,,---,0.03,315.00,VWS V14.01,2013-05-20 13:00:00,
2013-05-20 08:05:00,62.1,58.5,29.46,South,170,14.0,15.0,88,0.00,,---,0.03,325.00,VWS V14.01,2013-05-20 13:05:00,
2013-05-20 08:10:00,62.2,58.3,29.46,SSE,161,8.0,18.0,87,0.00,,---,0.03,343.00,VWS V14.01,2013-05-20 13:10:00,
2013-05-20 08:15:00,62.5,58.6,29.46,South,173,6.0,18.0,87,0.00,,---,0.03,352.00,VWS V14.01,2013-05-20 13:15:00,
2013-05-20 08:20:00,62.7,58.8,29.46,South,175,8.0,14.0,87,0.00,,---,0.03,373.00,VWS V14.01,2013-05-20 13:20:00,
2013-05-20 08:25:00,63.0,58.8,29.46,South,184,10.0,15.0,86,0.00,,---,0.03,394.00,VWS V14.01,2013-05-20 13:25:00,
2013-05-20 08:30:00,63.2,58.6,29.46,South,176,9.0,16.0,85,0.00,,---,0.03,417.00,VWS V14.01,2013-05-20 13:30:00,
2013-05-20 08:35:00,63.6,59.0,29.45,SSE,165,10.0,12.0,85,0.00,,---,0.03,469.00,VWS V14.01,2013-05-20 13:35:00,
2013-05-20 08:40:00,63.8,58.5,29.45,South,184,12.0,17.0,83,0.00,,---,0.03,155.00,VWS V14.01,2013-05-20 13:40:00,
2013-05-20 08:45:00,63.6,58.7,29.45,South,171,14.0,17.0,84,0.00,,---,0.03,276.00,VWS V14.01,2013-05-20 13:45:00,
2013-05-20 08:50:00,63.9,59.3,29.45,SSE,168,10.0,14.0,85,0.00,,---,0.03,524.00,VWS V14.01,2013-05-20 13:50:00,
2013-05-20 08:55:00,64.2,59.3,29.45,South,188,14.0,17.0,84,0.00,,---,0.03,290.00,VWS V14.01,2013-05-20 13:55:00,
2013-05-20 09:00:00,64.2,59.3,29.45,SSE,160,13.0,18.0,84,0.00,,---,0.03,227.00,VWS V14.01,2013-05-20 14:00:00,
2013-05-20 09:05:00,64.1,59.2,29.45,South,175,13.0,14.0,84,0.00,,---,0.03,264.00,VWS V14.01,2013-05-20 14:05:00,
2013-05-20 09:10:00,63.9,59.0,29.45,South,178,15.0,19.0,84,0.00,,---,0.03,278.00,VWS V14.01,2013-05-20 14:10:00,
2013-05-20 09:15:00,63.8,58.9,29.45,South,180,17.0,19.0,84,0.00,,---,0.03,265.00,VWS V14.01,2013-05-20 14:15:00,
2013-05-20 09:20:00,63.7,59.1,29.45,South,175,13.0,19.0,85,0.00,,---,0.03,299.00,VWS V14.01,2013-05-20 14:20:00,
2013-05-20 09:25:00,63.7,59.1,29.45,South,187,11.0,20.0,85,0.00,,---,0.03,269.00,VWS V14.01,2013-05-20 14:25:00,
2013-05-20 09:30:00,63.6,59.0,29.45,SSE,164,12.0,20.0,85,0.00,,---,0.03,255.00,VWS V14.01,2013-05-20 14:30:00,
2013-05-20 09:35:00,63.7,59.4,29.45,South,182,11.0,16.0,86,0.00,,---,0.03,287.00,VWS V14.01,2013-05-20 14:35:00,
2013-05-20 09:40:00,64.2,60.3,29.45,SSE,164,13.0,17.0,87,0.00,,---,0.03,336.00,VWS V14.01,2013-05-20 14:40:00,
2013-05-20 09:45:00,64.2,59.9,29.45,South,174,19.0,22.0,86,0.00,,---,0.03,353.00,VWS V14.01,2013-05-20 14:45:00,
2013-05-20 09:50:00,64.2,60.3,29.45,South,183,15.0,17.0,87,0.00,,---,0.03,371.00,VWS V14.01,2013-05-20 14:50:00,
2013-05-20 09:55:00,64.3,60.0,29.45,South,172,16.0,18.0,86,0.00,,---,0.03,410.00,VWS V14.01,2013-05-20 14:55:00,
2013-05-20 10:00:00,64.5,59.9,29.45,SSE,161,13.0,21.0,85,0.00,,---,0.03,394.00,VWS V14.01,2013-05-20 15:00:00,
2013-05-20 10:05:00,64.5,59.9,29.45,South,181,9.0,15.0,85,0.00,,---,0.03,570.00,VWS V14.01,2013-05-20 15:05:00,
2013-05-20 10:10:00,64.6,60.0,29.46,South,172,15.0,22.0,85,0.00,,---,0.03,387.00,VWS V14.01,2013-05-20 15:10:00,
2013-05-20 10:15:00,64.5,59.9,29.46,South,169,11.0,22.0,85,0.00,,---,0.03,236.00,VWS V14.01,2013-05-20 15:15:00,
2013-05-20 10:20:00,64.2,59.6,29.46,SSE,163,11.0,17.0,85,0.00,,---,0.03,176.00,VWS V14.01,2013-05-20 15:20:00,
2013-05-20 10:25:00,63.6,59.0,29.46,South,178,16.0,24.0,85,0.00,,---,0.03,158.00,VWS V14.01,2013-05-20 15:25:00,
2013-05-20 10:30:00,63.2,59.0,29.46,SSE,168,12.0,24.0,86,0.00,,---,0.03,179.00,VWS V14.01,2013-05-20 15:30:00,
2013-05-20 10:35:00,63.0,58.8,29.46,South,174,16.0,17.0,86,0.00,,---,0.03,135.00,VWS V14.01,2013-05-20 15:35:00,
2013-05-20 10:40:00,62.8,58.6,29.46,South,182,9.0,20.0,86,0.00,,---,0.03,169.00,VWS V14.01,2013-05-20 15:40:00,
2013-05-20 10:45:00,62.7,58.8,29.46,South,180,10.0,20.0,87,0.00,,---,0.03,158.00,VWS V14.01,2013-05-20 15:45:00,
2013-05-20 10:50:00,62.8,58.9,29.46,South,169,10.0,14.0,87,0.00,,---,0.03,153.00,VWS V14.01,2013-05-20 15:50:00,
2013-05-20 10:55:00,62.8,58.9,29.46,South,186,10.0,17.0,87,0.00,,---,0.03,171.00,VWS V14.01,2013-05-20 15:55:00,
2013-05-20 11:00:00,63.0,59.1,29.47,South,189,10.0,17.0,87,0.00,,---,0.03,230.00,VWS V14.01,2013-05-20 16:00:00,
2013-05-20 11:05:00,63.1,58.8,29.47,South,187,14.0,15.0,86,0.00,,---,0.03,265.00,VWS V14.01,2013-05-20 16:05:00,
2013-05-20 11:10:00,63.6,59.3,29.47,South,180,11.0,16.0,86,0.00,,---,0.03,309.00,VWS V14.01,2013-05-20 16:10:00,
2013-05-20 11:15:00,64.1,59.8,29.47,South,190,7.0,16.0,86,0.00,,---,0.03,292.00,VWS V14.01,2013-05-20 16:15:00,
2013-05-20 11:20:00,64.2,59.3,29.47,SSW,196,13.0,16.0,84,0.00,,---,0.03,292.00,VWS V14.01,2013-05-20 16:20:00,
2013-05-20 11:25:00,64.4,59.5,29.47,South,180,6.0,16.0,84,0.00,,---,0.03,155.00,VWS V14.01,2013-05-20 16:25:00,
2013-05-20 11:30:00,64.2,59.3,29.47,South,176,9.0,16.0,84,0.00,,---,0.03,83.00,VWS V14.01,2013-05-20 16:30:00,
2013-05-20 11:35:00,64.0,59.1,29.47,South,180,12.0,13.0,84,0.00,,---,0.03,67.00,VWS V14.01,2013-05-20 16:35:00,
2013-05-20 11:40:00,63.8,58.5,29.47,South,186,17.0,20.0,83,0.00,,---,0.03,42.00,VWS V14.01,2013-05-20 16:40:00,
2013-05-20 11:45:00,63.8,58.9,29.47,South,188,14.0,20.0,84,0.00,,---,0.03,81.00,VWS V14.01,2013-05-20 16:45:00,
2013-05-20 11:50:00,63.9,59.3,29.47,SSW,198,10.0,15.0,85,0.00,,---,0.03,223.00,VWS V14.01,2013-05-20 16:50:00,
2013-05-20 11:55:00,64.1,59.2,29.47,SW,217,12.0,15.0,84,0.00,,---,0.03,62.00,VWS V14.01,2013-05-20 16:55:00,
2013-05-20 12:00:00,63.7,58.8,29.48,SSW,207,15.0,19.0,84,0.00,,---,0.03,44.00,VWS V14.01,2013-05-20 17:00:00,
2013-05-20 12:05:00,63.1,58.2,29.48,SW,217,17.0,17.0,84,0.00,,---,0.03,72.00,VWS V14.01,2013-05-20 17:05:00,
2013-05-20 12:10:00,62.9,58.0,29.48,SW,219,13.0,19.0,84,0.00,,---,0.03,81.00,VWS V14.01,2013-05-20 17:10:00,
2013-05-20 12:15:00,62.8,57.9,29.48,SSW,198,13.0,19.0,84,0.00,,---,0.03,91.00,VWS V14.01,2013-05-20 17:15:00,
2013-05-20 12:20:00,62.9,58.0,29.48,SSW,194,13.0,15.0,84,0.00,,---,0.03,91.00,VWS V14.01,2013-05-20 17:20:00,
2013-05-20 12:25:00,62.9,58.3,29.48,South,186,10.0,17.0,85,0.00,,---,0.03,285.00,VWS V14.01,2013-05-20 17:25:00,
2013-05-20 12:30:00,63.5,58.9,29.48,SSW,213,9.0,17.0,85,0.00,,---,0.03,519.00,VWS V14.01,2013-05-20 17:30:00,
2013-05-20 12:35:00,64.4,59.5,29.48,SSW,200,12.0,15.0,84,0.00,,---,0.03,399.00,VWS V14.01,2013-05-20 17:35:00,
2013-05-20 12:40:00,64.7,59.4,29.48,SSW,207,12.0,15.0,83,0.00,,---,0.03,381.00,VWS V14.01,2013-05-20 17:40:00,
2013-05-20 12:45:00,65.3,59.3,29.48,SW,219,16.0,20.0,81,0.00,,---,0.03,417.00,VWS V14.01,2013-05-20 17:45:00,
2013-05-20 12:50:00,65.3,60.0,29.48,SW,233,16.0,20.0,83,0.00,,---,0.03,439.00,VWS V14.01,2013-05-20 17:50:00,
2013-05-20 12:55:00,65.6,60.0,29.48,SW,217,13.0,20.0,82,0.00,,---,0.03,684.00,VWS V14.01,2013-05-20 17:55:00,
2013-05-20 13:00:00,66.5,60.5,29.48,SSW,196,19.0,24.0,81,0.00,,---,0.03,1053.00,VWS V14.01,2013-05-20 18:00:00,
2013-05-20 13:05:00,66.6,59.5,29.48,SW,222,16.0,18.0,78,0.00,,---,0.03,378.00,VWS V14.01,2013-05-20 18:05:00,
2013-05-20 13:10:00,66.1,59.0,29.48,SSW,209,15.0,25.0,78,0.00,,---,0.03,185.00,VWS V14.01,2013-05-20 18:10:00,
2013-05-20 13:15:00,65.4,58.4,29.48,SW,226,15.0,25.0,78,0.00,,---,0.03,105.00,VWS V14.01,2013-05-20 18:15:00,
2013-05-20 13:20:00,64.8,58.5,29.48,SW,221,19.0,19.0,80,0.00,,---,0.03,113.00,VWS V14.01,2013-05-20 18:20:00,
2013-05-20 13:25:00,64.5,58.5,29.49,SSW,192,13.0,21.0,81,0.00,,---,0.03,253.00,VWS V14.01,2013-05-20 18:25:00,
2013-05-20 13:30:00,64.7,58.7,29.49,SSW,209,15.0,21.0,81,0.00,,---,0.03,202.00,VWS V14.01,2013-05-20 18:30:00,
2013-05-20 13:35:00,64.5,57.8,29.49,SW,221,15.0,19.0,79,0.00,,---,0.03,211.00,VWS V14.01,2013-05-20 18:35:00,
2013-05-20 13:40:00,64.6,57.6,29.49,SSW,206,18.0,22.0,78,0.00,,---,0.03,408.00,VWS V14.01,2013-05-20 18:40:00,
2013-05-20 13:45:00,65.0,58.7,29.49,SSW,205,12.0,22.0,80,0.00,,---,0.03,404.00,VWS V14.01,2013-05-20 18:45:00,
2013-05-20 13:50:00,66.0,59.7,29.49,SSW,213,18.0,18.0,80,0.00,,---,0.03,494.00,VWS V14.01,2013-05-20 18:50:00,
2013-05-20 13:54:00,66.6,57.7,29.49,SW,214,13.0,19.0,73,0.00,,---,0.03,211.00,VWS V14.01,2013-05-20 18:54:00,
2013-05-20 14:00:00,66.1,57.2,29.49,SW,214,14.0,20.0,73,0.00,,---,0.03,230.00,VWS V14.01,2013-05-20 19:00:00,
2013-05-20 14:05:00,66.2,58.4,29.49,SW,216,11.0,14.0,76,0.00,,---,0.03,345.00,VWS V14.01,2013-05-20 19:05:00,
2013-05-20 14:10:00,67.0,58.8,29.49,SSW,202,16.0,21.0,75,0.00,,---,0.03,285.00,VWS V14.01,2013-05-20 19:10:00,
2013-05-20 14:14:00,67.1,58.5,29.49,SSW,196,21.0,22.0,74,0.00,,---,0.03,847.00,VWS V14.01,2013-05-20 19:14:00,
2013-05-20 14:19:00,67.9,58.5,29.49,SW,214,15.0,26.0,72,0.00,,---,0.03,343.00,VWS V14.01,2013-05-20 19:19:00,
2013-05-20 14:24:00,67.7,58.4,29.49,SSW,194,10.0,26.0,72,0.00,,---,0.03,462.00,VWS V14.01,2013-05-20 19:24:00,
2013-05-20 14:29:00,68.9,59.5,29.49,South,191,14.0,26.0,72,0.00,,---,0.03,1016.00,VWS V14.01,2013-05-20 19:29:00,
2013-05-20 14:34:00,68.8,58.6,29.49,SSW,202,15.0,20.0,70,0.00,,---,0.03,1016.00,VWS V14.01,2013-05-20 19:34:00,
2013-05-20 14:39:00,68.6,58.8,29.49,SSW,209,17.0,24.0,71,0.00,,---,0.03,315.00,VWS V14.01,2013-05-20 19:39:00,
2013-05-20 14:44:00,68.4,57.4,29.49,SSW,213,14.0,25.0,68,0.00,,---,0.03,371.00,VWS V14.01,2013-05-20 19:44:00,
2013-05-20 14:49:00,69.4,58.4,29.49,SSW,203,16.0,23.0,68,0.00,,---,0.03,1027.00,VWS V14.01,2013-05-20 19:49:00,
2013-05-20 14:54:00,69.5,58.5,29.48,SSW,202,21.0,23.0,68,0.00,,---,0.03,325.00,VWS V14.01,2013-05-20 19:54:00,
2013-05-20 14:59:00,69.1,56.8,29.49,SW,221,19.0,25.0,65,0.00,,---,0.03,155.00,VWS V14.01,2013-05-20 19:59:00,
2013-05-20 15:04:00,68.5,57.1,29.49,SSW,205,20.0,26.0,67,0.00,,---,0.03,279.00,VWS V14.01,2013-05-20 20:04:00,
2013-05-20 15:09:00,68.6,57.6,29.49,South,190,20.0,26.0,68,0.00,,---,0.03,396.00,VWS V14.01,2013-05-20 20:09:00,
2013-05-20 15:14:00,68.9,56.7,29.49,South,184,21.0,27.0,65,0.00,,---,0.03,432.00,VWS V14.01,2013-05-20 20:14:00,
2013-05-20 15:19:00,69.0,56.8,29.49,SSW,202,15.0,25.0,65,0.00,,---,0.03,427.00,VWS V14.01,2013-05-20 20:19:00,
2013-05-20 15:24:00,69.5,58.5,29.49,SSW,207,15.0,25.0,68,0.00,,---,0.03,671.00,VWS V14.01,2013-05-20 20:24:00,
2013-05-20 15:29:00,70.0,58.1,29.49,SSW,195,15.0,25.0,66,0.00,,---,0.03,691.00,VWS V14.01,2013-05-20 20:29:00,
2013-05-20 15:34:00,69.9,58.0,29.49,South,187,13.0,23.0,66,0.00,,---,0.03,243.00,VWS V14.01,2013-05-20 20:34:00,
2013-05-20 15:39:00,69.0,56.8,29.49,South,175,18.0,28.0,65,0.00,,---,0.03,207.00,VWS V14.01,2013-05-20 20:39:00,
2013-05-20 15:44:00,68.7,56.9,29.49,South,183,15.0,29.0,66,0.00,,---,0.03,139.00,VWS V14.01,2013-05-20 20:44:00,
2013-05-20 15:49:00,68.4,57.0,29.49,South,177,12.0,19.0,67,0.00,,---,0.03,186.00,VWS V14.01,2013-05-20 20:49:00,
2013-05-20 15:54:00,68.7,57.3,29.49,SSW,198,26.0,26.0,67,0.00,,---,0.03,244.00,VWS V14.01,2013-05-20 20:54:00,
2013-05-20 15:59:00,69.4,57.1,29.49,SSW,194,25.0,29.0,65,0.00,,---,0.03,292.00,VWS V14.01,2013-05-20 20:59:00,
2013-05-20 16:04:00,69.5,56.4,29.49,SW,214,24.0,27.0,63,0.00,,---,0.03,336.00,VWS V14.01,2013-05-20 21:04:00,
2013-05-20 16:09:00,69.8,56.2,29.49,SSW,200,24.0,28.0,62,0.00,,---,0.03,341.00,VWS V14.01,2013-05-20 21:09:00,
2013-05-20 16:14:00,69.9,56.3,29.49,South,190,20.0,30.0,62,0.00,,---,0.03,376.00,VWS V14.01,2013-05-20 21:14:00,
2013-05-20 16:19:00,69.8,57.1,29.49,SSW,205,18.0,21.0,64,0.00,,---,0.03,255.00,VWS V14.01,2013-05-20 21:19:00,
2013-05-20 16:24:00,69.4,55.8,29.49,SSW,213,17.0,24.0,62,0.00,,---,0.03,179.00,VWS V14.01,2013-05-20 21:24:00,
2013-05-20 16:29:00,69.2,56.5,29.49,SSW,202,17.0,25.0,64,0.00,,---,0.03,206.00,VWS V14.01,2013-05-20 21:29:00,
2013-05-20 16:34:00,69.0,55.9,29.49,SSW,201,21.0,26.0,63,0.00,,---,0.03,165.00,VWS V14.01,2013-05-20 21:34:00,
2013-05-20 16:39:00,68.9,55.4,29.49,SSW,206,17.0,26.0,62,0.00,,---,0.03,195.00,VWS V14.01,2013-05-20 21:39:00,
2013-05-20 16:44:00,69.0,55.9,29.49,SSW,207,22.0,26.0,63,0.00,,---,0.03,274.00,VWS V14.01,2013-05-20 21:44:00,
2013-05-20 16:49:00,69.1,55.5,29.49,SW,231,20.0,24.0,62,0.00,,---,0.03,267.00,VWS V14.01,2013-05-20 21:49:00,
2013-05-20 16:54:00,69.2,55.2,29.49,SSW,209,16.0,29.0,61,0.00,,---,0.03,294.00,VWS V14.01,2013-05-20 21:54:00,
2013-05-20 16:59:00,69.3,56.2,29.49,SW,230,23.0,29.0,63,0.00,,---,0.03,197.00,VWS V14.01,2013-05-20 21:59:00,
2013-05-20 17:04:00,69.2,56.1,29.49,SSW,212,15.0,24.0,63,0.00,,---,0.03,174.00,VWS V14.01,2013-05-20 22:04:00,
2013-05-20 17:09:00,69.1,55.1,29.48,SW,225,22.0,26.0,61,0.00,,---,0.03,156.00,VWS V14.01,2013-05-20 22:09:00,
2013-05-20 17:14:00,69.0,55.5,29.49,SW,218,16.0,27.0,62,0.00,,---,0.03,137.00,VWS V14.01,2013-05-20 22:14:00,
2013-05-20 17:19:00,68.9,55.8,29.49,SW,215,12.0,19.0,63,0.00,,---,0.03,146.00,VWS V14.01,2013-05-20 22:19:00,
2013-05-20 17:24:00,68.8,55.3,29.49,North,360,19.0,19.0,62,0.00,,---,0.03,105.00,VWS V14.01,2013-05-20 22:24:00,
2013-05-20 17:29:00,68.6,56.4,29.49,SSW,210,9.0,19.0,65,0.00,,---,0.03,144.00,VWS V14.01,2013-05-20 22:29:00,
2013-05-20 17:34:00,68.6,56.0,29.49,SSW,211,10.0,12.0,64,0.00,,---,0.03,197.00,VWS V14.01,2013-05-20 22:34:00,
2013-05-20 17:39:00,68.9,57.5,29.49,SSW,206,9.0,14.0,67,0.00,,---,0.03,248.00,VWS V14.01,2013-05-20 22:39:00,
2013-05-20 17:44:00,69.1,56.0,29.49,SSW,196,6.0,15.0,63,0.00,,---,0.03,120.00,VWS V14.01,2013-05-20 22:44:00,
2013-05-20 17:49:00,69.0,56.3,29.49,SSW,205,11.0,18.0,64,0.00,,---,0.03,83.00,VWS V14.01,2013-05-20 22:49:00,
2013-05-20 17:54:00,68.8,56.6,29.49,SSW,205,8.0,18.0,65,0.00,,---,0.03,90.00,VWS V14.01,2013-05-20 22:54:00,
2013-05-20 17:59:00,68.7,56.5,29.49,SSW,198,15.0,18.0,65,0.00,,---,0.03,81.00,VWS V14.01,2013-05-20 22:59:00,
2013-05-20 18:04:00,68.8,57.4,29.49,SSW,207,6.0,10.0,67,0.00,,---,0.03,51.00,VWS V14.01,2013-05-20 23:04:00,
2013-05-20 18:09:00,68.5,56.3,29.49,SSW,196,8.0,13.0,65,0.00,,---,0.03,21.00,VWS V14.01,2013-05-20 23:09:00,
2013-05-20 18:14:00,68.5,55.9,29.49,SW,216,10.0,14.0,64,0.00,,---,0.03,16.00,VWS V14.01,2013-05-20 23:14:00,
2013-05-20 18:19:00,68.1,56.3,29.48,SSW,211,7.0,10.0,66,0.00,,---,0.03,62.00,VWS V14.01,2013-05-20 23:19:00,
2013-05-20 18:24:00,68.0,55.8,29.48,SW,217,9.0,12.0,65,0.00,,---,0.03,28.00,VWS V14.01,2013-05-20 23:24:00,
2013-05-20 18:29:00,67.8,56.0,29.48,SW,222,4.0,12.0,66,0.00,,---,0.03,11.00,VWS V14.01,2013-05-20 23:29:00,
2013-05-20 18:34:00,67.6,55.8,29.48,SW,226,12.0,13.0,66,0.00,,---,0.03,12.00,VWS V14.01,2013-05-20 23:34:00,
2013-05-20 18:39:00,67.3,55.6,29.48,SW,226,8.0,13.0,66,0.00,,---,0.03,11.00,VWS V14.01,2013-05-20 23:39:00,
2013-05-20 18:44:00,67.0,55.3,29.48,SW,224,8.0,14.0,66,0.00,,---,0.03,9.00,VWS V14.01,2013-05-20 23:44:00,
2013-05-20 18:49:00,66.7,55.0,29.49,SW,217,9.0,16.0,66,0.00,,---,0.03,0.00,VWS V14.01,2013-05-20 23:49:00,
2013-05-20 18:54:00,64.8,56.3,29.50,SW,231,19.0,25.0,74,0.03,,---,0.06,7.00,VWS V14.01,2013-05-20 23:54:00,
2013-05-20 18:59:00,62.2,56.6,29.50,SSW,200,13.0,25.0,82,0.09,,---,0.12,0.00,VWS V14.01,2013-05-20 23:59:00,
2013-05-20 19:04:00,61.0,56.5,29.50,WSW,237,11.0,15.0,85,0.13,,---,0.16,0.00,VWS V14.01,2013-05-21 00:04:00,
2013-05-20 19:09:00,60.5,56.6,29.50,SW,223,15.0,17.0,87,0.13,,---,0.16,5.00,VWS V14.01,2013-05-21 00:09:00,
2013-05-20 19:14:00,60.3,56.7,29.50,SW,221,10.0,17.0,88,0.15,,---,0.18,7.00,VWS V14.01,2013-05-21 00:14:00,
2013-05-20 19:19:00,60.2,57.0,29.50,SW,234,10.0,11.0,89,0.17,,---,0.20,16.00,VWS V14.01,2013-05-21 00:19:00,
2013-05-20 19:24:00,60.0,56.8,29.50,SW,231,12.0,14.0,89,0.18,,---,0.21,16.00,VWS V14.01,2013-05-21 00:24:00,
2013-05-20 19:29:00,59.9,57.0,29.49,SW,233,6.0,14.0,90,0.18,,---,0.21,42.00,VWS V14.01,2013-05-21 00:29:00,
2013-05-20 19:34:00,59.9,57.0,29.49,WSW,251,6.0,8.0,90,0.18,,---,0.21,39.00,VWS V14.01,2013-05-21 00:34:00,
2013-05-20 19:39:00,59.9,57.0,29.49,WSW,239,5.0,8.0,90,0.18,,---,0.21,40.00,VWS V14.01,2013-05-21 00:39:00,
2013-05-20 19:44:00,60.0,57.1,29.48,WSW,238,4.0,8.0,90,0.18,,---,0.21,28.00,VWS V14.01,2013-05-21 00:44:00,
2013-05-20 19:49:00,60.1,57.2,29.48,WSW,238,3.0,3.0,90,0.18,,---,0.21,16.00,VWS V14.01,2013-05-21 00:49:00,
2013-05-20 19:54:00,60.2,57.3,29.48,WSW,238,2.0,4.0,90,0.18,,---,0.21,16.00,VWS V14.01,2013-05-21 00:54:00,
2013-05-20 19:59:00,60.3,57.4,29.48,WSW,238,0.0,4.0,90,0.18,,---,0.21,9.00,VWS V14.01,2013-05-21 00:59:00,
2013-05-20 20:04:00,60.3,57.4,29.48,WSW,238,0.0,0.0,90,0.06,,---,0.21,9.00,VWS V14.01,2013-05-21 01:04:00,
2013-05-20 20:09:00,60.3,57.4,29.48,WSW,238,0.0,0.0,90,0.06,,---,0.21,7.00,VWS V14.01,2013-05-21 01:09:00,
2013-05-20 20:14:00,60.3,57.4,29.49,WSW,238,0.0,0.0,90,0.06,,---,0.21,5.00,VWS V14.01,2013-05-21 01:14:00,
2013-05-20 20:19:00,60.2,57.3,29.49,WSW,238,0.0,0.0,90,0.01,,---,0.21,0.00,VWS V14.01,2013-05-21 01:19:00,
2013-05-20 20:24:00,60.2,57.3,29.49,WSW,255,4.0,5.0,90,0.02,,---,0.22,0.00,VWS V14.01,2013-05-21 01:24:00,
2013-05-20 20:29:00,60.2,57.6,29.49,WSW,253,4.0,7.0,91,0.07,,---,0.27,0.00,VWS V14.01,2013-05-21 01:29:00,
2013-05-20 20:34:00,60.1,57.5,29.48,WSW,252,4.0,4.0,91,0.14,,---,0.35,0.00,VWS V14.01,2013-05-21 01:34:00,
2013-05-20 20:39:00,60.0,57.4,29.47,WSW,252,1.0,5.0,91,0.15,,---,0.36,0.00,VWS V14.01,2013-05-21 01:39:00,
2013-05-20 20:44:00,59.9,57.3,29.48,WSW,252,3.0,5.0,91,0.15,,---,0.36,0.00,VWS V14.01,2013-05-21 01:44:00,
2013-05-20 20:49:00,59.8,57.2,29.48,WSW,252,3.0,3.0,91,0.15,,---,0.36,0.00,VWS V14.01,2013-05-21 01:49:00,
2013-05-20 20:54:00,59.5,56.9,29.48,SSE,156,4.0,5.0,91,0.15,,---,0.36,0.00,VWS V14.01,2013-05-21 01:54:00,
2013-05-20 20:59:00,59.3,56.7,29.47,SSE,153,2.0,5.0,91,0.15,,---,0.36,0.00,VWS V14.01,2013-05-21 01:59:00,
2013-05-20 21:04:00,59.2,56.9,29.48,SSE,154,2.0,2.0,92,0.15,,---,0.36,0.00,VWS V14.01,2013-05-21 02:04:00,
2013-05-20 21:09:00,59.0,56.7,29.49,SSE,154,1.0,2.0,92,0.15,,---,0.36,0.00,VWS V14.01,2013-05-21 02:09:00,
2013-05-20 21:14:00,59.0,56.7,29.49,SE,131,4.0,5.0,92,0.15,,---,0.36,0.00,VWS V14.01,2013-05-21 02:14:00,
2013-05-20 21:19:00,59.1,57.1,29.49,ESE,119,3.0,5.0,93,0.15,,---,0.36,0.00,VWS V14.01,2013-05-21 02:19:00,
2013-05-20 21:24:00,59.1,57.1,29.49,ESE,119,3.0,5.0,93,0.15,,---,0.36,0.00,VWS V14.01,2013-05-21 02:24:00,
2013-05-20 21:29:00,59.1,57.1,29.49,ESE,119,0.0,5.0,93,0.15,,---,0.36,0.00,VWS V14.01,2013-05-21 02:29:00,
2013-05-20 21:34:00,59.0,57.0,29.49,ESE,119,0.0,0.0,93,0.01,,---,0.36,0.00,VWS V14.01,2013-05-21 02:34:00,
2013-05-20 21:39:00,59.0,57.0,29.49,ESE,119,0.0,0.0,93,0.01,,---,0.36,0.00,VWS V14.01,2013-05-21 02:39:00,
2013-05-20 21:44:00,59.0,57.0,29.49,ESE,119,0.0,0.0,93,0.01,,---,0.36,0.00,VWS V14.01,2013-05-21 02:44:00,
2013-05-20 21:49:00,58.9,57.2,29.49,ESE,115,0.0,0.0,94,0.00,,---,0.36,0.00,VWS V14.01,2013-05-21 02:49:00,
2013-05-20 21:54:00,59.0,57.3,29.48,ESE,105,0.0,0.0,94,0.00,,---,0.36,0.00,VWS V14.01,2013-05-21 02:54:00,
2013-05-20 21:59:00,58.8,57.1,29.48,ESE,102,0.0,0.0,94,0.00,,---,0.36,0.00,VWS V14.01,2013-05-21 02:59:00,
2013-05-20 22:04:00,58.8,57.1,29.49,East,90,3.0,3.0,94,0.00,,---,0.36,0.00,VWS V14.01,2013-05-21 03:04:00,
2013-05-20 22:09:00,58.9,57.2,29.48,East,88,0.0,5.0,94,0.00,,---,0.36,0.00,VWS V14.01,2013-05-21 03:09:00,
2013-05-20 22:14:00,58.8,57.1,29.48,East,89,0.0,5.0,94,0.00,,---,0.36,0.00,VWS V14.01,2013-05-21 03:14:00,
2013-05-20 22:19:00,58.8,57.1,29.48,East,89,0.0,0.0,94,0.00,,---,0.36,0.00,VWS V14.01,2013-05-21 03:19:00,
2013-05-20 22:24:00,58.9,57.2,29.48,East,89,0.0,0.0,94,0.00,,---,0.36,0.00,VWS V14.01,2013-05-21 03:24:00,
2013-05-20 22:29:00,58.9,57.2,29.48,East,89,0.0,0.0,94,0.00,,---,0.36,0.00,VWS V14.01,2013-05-21 03:29:00,
2013-05-20 22:34:00,59.0,57.3,29.48,East,89,0.0,0.0,94,0.00,,---,0.36,0.00,VWS V14.01,2013-05-21 03:34:00,
2013-05-20 22:39:00,59.0,57.3,29.47,East,89,0.0,0.0,94,0.00,,---,0.36,0.00,VWS V14.01,2013-05-21 03:39:00,
2013-05-20 22:44:00,58.9,57.2,29.47,East,88,0.0,0.0,94,0.00,,---,0.36,0.00,VWS V14.01,2013-05-21 03:44:00,
2013-05-20 22:49:00,58.9,57.2,29.47,East,89,0.0,0.0,94,0.00,,---,0.36,0.00,VWS V14.01,2013-05-21 03:49:00,
2013-05-20 22:54:00,58.9,57.2,29.46,East,89,0.0,0.0,94,0.00,,---,0.36,0.00,VWS V14.01,2013-05-21 03:54:00,
2013-05-20 22:59:00,59.0,57.3,29.46,East,89,3.0,4.0,94,0.00,,---,0.36,0.00,VWS V14.01,2013-05-21 03:59:00,
2013-05-20 23:01:00,59.0,57.3,29.46,East,88,1.0,4.0,94,0.00,,---,0.36,0.00,VWS V14.01,2013-05-21 04:01:00,
2013-05-20 23:06:00,59.0,57.3,29.46,East,89,0.0,0.0,94,0.00,,---,0.36,0.00,VWS V14.01,2013-05-21 04:06:00,
2013-05-20 23:11:00,59.0,57.3,29.46,East,89,0.0,0.0,94,0.00,,---,0.36,0.00,VWS V14.01,2013-05-21 04:11:00,
2013-05-20 23:16:00,58.7,56.7,29.46,East,88,0.0,0.0,93,0.00,,---,0.36,0.00,VWS V14.01,2013-05-21 04:16:00,
2013-05-20 23:21:00,58.7,57.0,29.46,East,89,0.0,0.0,94,0.00,,---,0.36,0.00,VWS V14.01,2013-05-21 04:21:00,
2013-05-20 23:26:00,58.6,56.9,29.46,East,89,0.0,0.0,94,0.00,,---,0.36,0.00,VWS V14.01,2013-05-21 04:26:00,
2013-05-20 23:31:00,58.5,56.8,29.45,East,88,0.0,0.0,94,0.00,,---,0.36,0.00,VWS V14.01,2013-05-21 04:31:00,
2013-05-20 23:36:00,58.5,56.8,29.46,East,88,0.0,0.0,94,0.00,,---,0.36,0.00,VWS V14.01,2013-05-21 04:36:00,
2013-05-20 23:41:00,58.5,56.8,29.46,East,89,0.0,3.0,94,0.00,,---,0.36,0.00,VWS V14.01,2013-05-21 04:41:00,
2013-05-20 23:46:00,58.5,56.8,29.46,East,89,0.0,3.0,94,0.00,,---,0.36,0.00,VWS V14.01,2013-05-21 04:46:00,
2013-05-20 23:51:00,58.5,56.8,29.46,East,89,0.0,0.0,94,0.00,,---,0.36,0.00,VWS V14.01,2013-05-21 04:51:00,
2013-05-20 23:56:00,58.6,56.9,29.46,East,89,0.0,0.0,94,0.00,,---,0.36,0.00,VWS V14.01,2013-05-21 04:56:00,